Dewpoint
-4 -3 -4 -5 -6 -4 -3 -3 -3 -3 -3 -4 -4 -4 -4 -3 -2 -2 -2 -4 -6 -8 -11 -18 -21 -18 -16 -4 -1 -2 -2 -3 -3 -3 -2 0 1 2 2 3 3 3 3
-4 -6 -9 -10 -10 -10 -9 -7 -6 -5 -4 -3 -2 -2 -1 -2 -2 -2 -2 -2 -5 -7 -10 -15 -20 -20 -17 -4 0 -1 -2 -2 -1 -0 1 2 3 3 3 3 3 3 3
-9 -10 -6 -5 -6 -6 -5 -5 -7 -9 -10 -10 -7 -4 -2 -1 -1 -1 -1 -1 -4 -7 -9 -13 -19 -21 -19 -11 -6 -0 -1 -1 1 2 2 3 3 2 3 3 3 3 3
-8 -6 -4 -4 -6 -5 -4 -3 -3 -3 -3 -5 -10 -9 -6 -4 -1 -1 -1 -2 -2 -5 -8 -11 -17 -20 -18 -15 -13 -8 -0 0 2 3 3 3 3 3 3 2 3 3 2
-7 -6 -4 -4 -5 -6 -5 -4 -4 -3 -3 -4 -3 -8 -9 -7 -4 -2 -2 -2 -3 -5 -7 -10 -14 -19 -18 -16 -13 -11 -5 0 1 2 3 2 2 3 2 3 2 2 1
-8 -4 -4 -5 -4 -6 -6 -5 -4 -3 -3 -4 -5 -4 -8 -9 -8 -7 -4 -3 -4 -5 -6 -10 -12 -17 -20 -18 -15 -11 -9 0 2 2 3 2 2 2 2 2 2 2 2
-8 -5 -6 -6 -4 -5 -5 -4 -3 -3 -3 -4 -6 -5 -5 -7 -8 -8 -7 -5 -5 -6 -6 -8 -10 -13 -18 -19 -18 -15 -11 -7 -0 2 2 2 1 2 2 1 2 2 2
-6 -7 -5 -3 -3 -4 -3 -3 -3 -4 -6 -6 -7 -6 -4 -6 -6 -7 -7 -6 -6 -5 -5 -7 -8 -10 -14 -18 -19 -18 -15 -10 -8 -4 -0 1 1 1 1 1 1 2 1
-6 -4 -2 -2 -3 -2 -3 -3 -5 -6 -7 -6 -6 -6 -5 -5 -6 -6 -6 -6 -7 -7 -7 -7 -7 -8 -10 -13 -16 -18 -17 -15 -12 -9 -8 -5 -4 0 0 1 1 0 1
-4 -2 -2 -2 -2 -2 -3 -5 -6 -7 -6 -6 -5 -6 -5 -4 -5 -6 -6 -5 -5 -7 -8 -9 -8 -8 -8 -9 -11 -14 -17 -18 -16 -14 -13 -12 -6 -4 -4 -2 -1 -0 -0
-5 -4 -2 -2 -3 -3 -4 -6 -7 -7 -7 -8 -8 -6 -5 -5 -4 -5 -5 -5 -5 -5 -5 -6 -7 -7 -7 -7 -8 -9 -11 -14 -17 -18 -17 -16 -14 -13 -13 -11 -9 -9 -9
-5 -6 -5 -2 -3 -3 -4 -6 -7 -8 -8 -8 -8 -7 -8 -7 -6 -4 -4 -4 -4 -3 -4 -4 -5 -6 -6 -6 -6 -6 -8 -9 -12 -15 -17 -18 -18 -18 -17 -16 -16 -15 -15
-6 -5 -6 -2 -3 -3 -4 -6 -7 -9 -11 -13 -11 -8 -7 -7 -7 -6 -5 -5 -6 -5 -5 -5 -5 -6 -6 -6 -6 -5 -5 -6 -8 -10 -13 -16 -17 -17 -17 -17 -18 -18 -15
-6 -6 -5 -2 -3 -3 -4 -5 -7 -8 -9 -12 -16 -15 -11 -10 -8 -7 -7 -7 -6 -5 -5 -4 -4 -3 -4 -4 -6 -7 -6 -5 -5 -6 -8 -10 -13 -16 -17 -17 -18 -18 -15
-6 -6 -2 -2 -2 -3 -3 -4 -5 -9 -11 -14 -20 -21 -19 -17 -16 -14 -11 -9 -8 -8 -8 -7 -6 -5 -3 -3 -3 -5 -6 -7 -5 -4 -5 -6 -8 -11 -13 -16 -17 -18 -15
-6 -4 -2 -2 -2 -2 -2 -3 -4 -7 -13 -17 -20 -19 -18 -19 -19 -19 -19 -19 -18 -15 -12 -11 -10 -9 -8 -7 -6 -6 -6 -5 -6 -6 -5 -4 -5 -6 -9 -12 -15 -16 -16
-6 -3 -3 -2 -2 -2 -2 -3 -4 -8 -15 -19 -20 -20 -22 -24 -25 -25 -25 -24 -23 -22 -21 -19 -19 -18 -16 -15 -12 -10 -9 -8 -6 -6 -6 -5 -4 -4 -5 -7 -10 -14 -15
-3 -3 -3 -2 -2 -2 -2 -3 -3 -7 -14 -18 -20 -20 -19 -22 -24 -25 -25 -25 -25 -24 -24 -23 -23 -23 -21 -20 -20 -18 -15 -13 -11 -9 -7 -6 -6 -5 -4 -4 -5 -8 -12
-2 -2 -2 -2 -2 -2 -2 -3 -3 -6 -14 -17 -19 -20 -19 -21 -23 -24 -25 -24 -25 -26 -26 -26 -27 -27 -27 -26 -26 -24 -21 -20 -18 -13 -9 -7 -6 -6 -5 -4 -4 -4 -6
-2 -2 -2 -2 -2 -2 -2 -2 -3 -5 -12 -16 -17 -16 -15 -18 -21 -23 -24 -25 -25 -26 -26 -26 -26 -26 -28 -28 -28 -28 -28 -28 -26 -24 -20 -14 -8 -6 -5 -5 -5 -4 -4
-3 -2 -2 -1 -1 -2 -2 -2 -4 -7 -13 -12 -13 -16 -19 -20 -20 -22 -24 -25 -25 -24 -25 -24 -25 -25 -26 -27 -28 -29 -29 -28 -29 -29 -28 -24 -16 -10 -7 -5 -5 -5 -4
-3 -2 -2 -2 -1 -2 -2 -3 -6 -11 -12 -13 -11 -9 -15 -18 -22 -23 -25 -24 -23 -24 -25 -24 -25 -25 -24 -24 -26 -26 -26 -27 -27 -28 -28 -28 -27 -22 -10 -6 -5 -5 -5
-2 -2 -2 -2 -2 -1 -2 -6 -8 -8 -6 -4 -4 -6 -6 -4 -10 -19 -21 -20 -20 -20 -21 -21 -22 -23 -24 -23 -23 -24 -25 -25 -26 -25 -23 -22 -24 -26 -24 -14 -3 -3 -4
-2 -2 -2 -2 -2 -4 -6 -7 -5 -4 -4 -5 -6 -6 -9 -11 -11 -12 -14 -14 -15 -15 -16 -17 -18 -20 -20 -21 -21 -21 -22 -23 -23 -22 -21 -20 -19 -19 -18 -19 -8 -4 -4
-4 -4 -5 -6 -6 -6 -6 -6 -9 -9 -10 -9 -8 -9 -11 -14 -15 -16 -16 -16 -17 -16 -15 -15 -17 -17 -18 -20 -17 -16 -17 -18 -19 -14 -16 -17 -16 -13 -11 -12 -10 -7 -5
-5 -6 -7 -8 -8 -8 -9 -10 -11 -13 -15 -17 -16 -17 -17 -19 -19 -19 -19 -20 -18 -17 -15 -14 -12 -13 -14 -15 -14 -13 -14 -17 -18 -14 -12 -16 -15 -11 -7 -5 -5 -7 -6
Wind_Speed
2 3 6 9 9 9 10 11 12 13 14 15 15 17 18 18 18 19 19 18 18 18 20 19 17 17 17 15 15 12 9 9 10 9 5 4 3 2 2 3 1 3 5
1 2 6 9 10 11 12 12 14 16 17 19 20 21 21 20 19 18 19 18 18 18 18 18 17 17 16 14 13 12 9 7 7 6 4 0 1 3 3 4 4 5 5
2 5 7 9 10 11 12 13 14 15 16 18 20 22 22 21 19 18 19 18 17 17 17 17 17 17 16 14 14 12 9 7 4 5 2 2 2 6 5 4 8 9 8
3 5 7 9 9 10 11 12 14 18 20 20 20 20 21 22 19 20 19 18 17 17 17 16 15 14 13 13 13 12 8 7 4 2 2 2 3 3 5 6 9 10 12
2 4 7 10 10 10 11 13 16 19 23 23 21 20 19 19 19 19 19 18 17 18 17 16 15 14 12 12 12 12 9 7 6 5 5 5 5 6 6 11 9 12 13
2 3 8 11 11 11 12 16 19 22 25 25 21 20 19 17 18 17 18 17 17 17 16 15 15 15 14 13 12 11 10 7 8 8 7 7 7 8 10 13 16 19 14
3 5 10 13 13 13 15 18 22 25 27 26 21 19 18 17 17 15 15 16 16 16 16 15 15 14 13 13 12 12 11 9 9 9 10 13 13 13 14 18 18 19 19
2 6 9 13 14 14 17 20 23 26 26 25 21 18 17 17 15 15 14 15 15 15 15 15 14 14 13 13 13 12 11 11 11 11 11 12 14 14 15 17 18 19 15
4 5 8 12 13 17 20 25 26 25 23 22 21 18 16 15 15 15 15 14 14 14 14 15 15 14 14 14 14 13 13 12 12 13 15 15 14 12 14 15 15 16 14
4 5 8 12 15 18 23 23 23 23 22 21 20 18 17 16 15 14 14 15 14 14 14 14 14 14 14 15 15 15 14 14 13 14 14 13 16 18 19 18 20 20 20
10 8 9 13 16 20 21 21 22 22 21 20 19 18 15 15 15 14 14 14 14 14 15 15 15 15 14 15 16 16 16 16 16 15 16 15 15 17 17 18 19 20 21
16 14 13 13 15 19 20 20 21 20 20 20 19 18 17 15 13 13 13 14 14 14 15 15 16 16 16 16 17 17 17 17 17 16 17 17 17 18 18 19 20 21 20
26 20 15 11 15 18 19 19 19 19 19 19 19 17 16 15 14 14 14 14 14 14 14 14 14 15 15 16 17 18 18 18 19 18 18 18 18 18 18 19 21 20 20
15 12 11 9 13 15 17 19 18 19 19 20 19 18 17 16 15 14 14 14 15 15 15 15 15 16 16 16 17 18 19 19 19 19 19 19 19 20 19 20 20 20 21
12 9 9 11 13 14 16 17 18 19 20 19 19 18 17 17 16 16 15 15 15 15 16 16 16 17 18 17 18 19 20 21 21 20 20 20 20 20 21 22 21 20 20
10 9 12 16 15 15 17 19 19 19 19 19 18 18 18 18 17 16 16 16 16 17 17 16 17 17 17 18 19 20 21 21 22 22 21 21 22 22 22 23 23 23 21
8 11 18 22 18 16 17 19 20 20 18 18 17 17 19 19 19 18 17 17 16 17 17 17 17 17 17 17 18 19 22 23 24 23 23 23 23 23 24 23 24 25 24
14 21 24 24 20 19 19 20 23 21 19 18 17 16 18 19 19 19 18 18 17 16 16 16 16 17 17 17 17 17 19 21 22 23 23 24 24 24 24 26 28 27 27
17 19 22 21 21 20 19 20 23 22 19 18 18 18 19 19 20 20 20 20 20 19 17 16 17 17 17 18 18 20 21 21 21 21 22 23 24 24 24 26 29 30 29
25 26 23 22 23 20 21 21 23 22 19 18 18 19 20 21 21 22 22 22 21 21 20 18 17 17 17 18 19 20 21 22 23 24 24 23 23 22 21 25 28 32 31
31 28 22 21 19 20 20 21 21 21 17 17 19 20 21 22 23 23 23 23 23 23 23 22 20 19 18 17 19 20 22 23 26 27 29 28 27 26 25 23 26 32 29
27 26 27 24 19 19 22 21 20 16 16 16 18 21 23 24 24 25 25 25 26 27 27 27 26 22 21 20 20 22 23 24 27 28 29 30 29 29 29 29 28 27 29
24 23 23 21 17 22 22 19 18 15 19 26 29 25 25 28 27 27 28 28 27 29 31 30 30 29 26 26 24 24 25 27 30 31 32 32 32 30 31 30 29 28 28
16 16 17 18 19 16 15 17 18 21 24 25 24 25 26 27 27 29 31 32 33 33 35 35 35 35 33 31 27 27 26 27 29 30 31 32 33 33 32 33 30 31 30
14 14 14 16 17 17 18 19 19 21 24 25 26 28 30 31 31 30 31 32 33 32 34 35 35 37 39 36 32 31 31 32 32 31 33 34 36 37 37 34 33 30 33
13 15 17 19 20 20 22 24 25 27 28 30 30 31 33 34 34 34 36 33 34 34 34 35 36 38 38 37 34 33 31 32 32 31 33 35 36 36 34 33 34 35 33
Wind_Direction
87 22 3 350 340 334 335 332 331 328 328 326 324 316 318 322 325 328 324 323 325 326 326 327 325 323 320 320 318 319 323 311 304 311 317 303 304 214 306 316 230 205 211
127 19 0 356 353 355 349 337 327 321 316 312 309 309 312 316 321 324 325 320 323 326 327 327 328 328 324 322 321 323 334 327 324 334 342 318 230 205 285 226 221 222 228
31 19 25 14 10 8 6 1 356 346 332 319 311 307 305 306 314 317 322 318 318 324 328 329 331 330 327 325 323 321 327 332 335 343 2 2 351 326 223 238 225 236 253
44 21 4 3 0 9 7 3 1 355 348 338 327 315 306 304 306 307 314 317 313 320 323 324 326 327 328 326 324 316 310 313 319 295 297 315 329 327 315 242 244 257 266
17 4 1 1 352 337 333 334 340 342 341 333 325 318 314 309 304 303 305 310 310 316 318 320 322 323 324 324 323 324 309 283 281 278 264 261 295 294 279 294 295 297 296
337 8 3 353 342 326 316 321 329 335 336 334 326 315 311 310 309 307 301 303 307 312 315 318 322 323 323 323 320 316 313 294 279 261 267 279 284 282 282 286 297 305 310
321 333 337 340 338 331 326 327 327 328 327 326 323 316 310 307 309 310 305 304 306 309 311 314 316 319 320 321 320 317 313 306 282 275 256 254 265 270 277 283 290 295 301
333 344 341 341 339 336 332 329 328 327 327 324 322 318 313 306 307 307 306 307 306 308 310 313 314 315 316 316 314 314 309 299 296 287 276 273 264 268 270 277 284 297 295
349 339 343 346 343 340 339 335 333 333 332 330 325 322 315 308 303 303 305 304 303 305 308 311 312 312 314 314 313 312 308 303 297 292 288 283 281 271 263 267 271 280 297
347 335 344 350 347 343 339 339 340 342 341 339 336 326 316 312 310 303 301 301 301 303 306 308 309 307 306 307 307 307 305 301 296 292 293 289 281 276 275 270 268 268 270
353 318 318 340 345 344 342 344 346 348 347 345 345 341 330 317 310 305 306 302 299 298 302 304 305 304 304 304 305 306 305 303 301 297 292 289 286 284 283 281 279 277 275
312 315 304 319 338 341 343 346 349 352 351 349 348 348 344 333 322 311 307 307 303 300 299 299 303 303 303 303 304 303 301 299 297 296 293 294 289 287 286 284 282 282 280
292 294 292 304 335 340 342 343 341 344 348 350 351 348 343 341 336 326 316 310 307 305 302 301 303 303 301 300 300 299 298 297 296 296 293 292 288 287 287 285 285 286 283
293 280 261 297 326 334 342 340 334 330 332 336 337 340 342 343 338 332 326 321 316 312 310 308 308 307 306 307 305 300 297 294 294 294 293 293 291 291 289 287 287 286 282
302 283 261 292 310 328 337 338 334 327 324 324 327 330 332 332 330 328 326 324 320 315 312 310 304 303 303 304 302 301 300 298 295 292 292 292 291 288 288 287 286 283 280
285 279 284 288 298 316 325 333 332 323 317 316 320 322 326 327 326 326 326 324 320 316 313 311 309 308 306 305 301 300 299 298 295 295 292 291 290 291 289 287 287 285 280
304 305 310 296 285 303 312 324 326 319 313 311 313 315 319 323 324 324 324 322 320 319 319 319 315 313 315 310 306 303 299 301 301 300 298 294 290 288 289 287 283 279 277
309 310 309 302 282 297 310 319 319 313 309 308 310 316 319 321 322 323 324 324 324 325 324 325 325 324 325 319 314 308 305 303 302 302 301 297 296 293 290 288 285 283 280
312 310 315 306 281 292 307 314 314 308 305 304 307 312 315 318 318 319 320 320 318 318 318 321 320 320 322 319 318 315 312 308 305 302 300 298 294 294 290 284 282 283 280
312 311 303 298 284 292 301 306 305 298 300 299 305 310 313 313 314 315 315 315 312 310 311 312 314 316 319 320 320 318 315 313 310 308 304 302 300 297 292 287 283 280 281
305 304 302 299 287 286 293 301 296 295 298 302 306 310 313 312 312 312 312 309 305 303 305 307 310 313 314 318 318 319 318 318 317 317 315 312 307 303 296 290 284 283 285
303 298 301 300 291 292 303 298 292 297 299 306 310 314 314 313 313 312 311 305 302 303 304 304 306 307 307 308 312 313 316 319 317 315 314 312 310 306 301 296 292 286 279
298 300 298 293 293 306 300 293 303 300 302 300 300 306 305 299 305 305 304 302 302 301 301 300 300 303 303 302 305 309 312 312 311 312 313 313 312 309 303 294 291 288 275
316 313 308 307 310 308 304 305 308 306 299 299 298 303 304 303 300 298 300 301 302 302 300 298 296 298 296 297 299 298 299 300 301 304 303 305 307 309 310 308 293 286 279
313 315 318 318 315 311 302 303 308 308 308 308 307 306 305 305 303 301 300 299 299 299 298 296 295 293 292 295 296 297 300 304 304 303 300 301 304 306 306 307 304 291 287
312 314 311 309 308 307 303 303 308 309 305 301 301 301 301 301 301 301 300 298 299 298 295 293 292 291 290 290 290 292 297 299 298 294 294 297 299 298 298 294 293 294 288
Height
1541 1541 1539 1538 1537 1535 1534 1533 1531 1529 1527 1524 1522 1520 1518 1515 1513 1509 1507 1504 1502 1499 1496 1493 1490 1487 1485 1484 1482 1480 1479 1477 1476 1475 1475 1474 1474 1474 1474 1474 1473 1474 1475
1540 1539 1538 1536 1535 1532 1531 1530 1529 1527 1524 1521 1518 1516 1514 1512 1510 1507 1504 1502 1499 1496 1494 1491 1488 1485 1483 1482 1480 1478 1477 1475 1474 1473 1473 1473 1474 1474 1473 1473 1473 1473 1473
1538 1537 1535 1535 1534 1532 1530 1529 1527 1524 1521 1518 1515 1513 1511 1509 1507 1505 1503 1500 1497 1494 1491 1488 1486 1484 1482 1480 1478 1477 1476 1474 1473 1472 1474 1473 1473 1472 1472 1471 1471 1471 1471
1536 1535 1535 1534 1532 1530 1529 1528 1525 1522 1519 1516 1512 1509 1507 1505 1504 1502 1500 1497 1494 1492 1489 1486 1483 1481 1480 1478 1476 1474 1474 1473 1473 1473 1472 1472 1473 1473 1471 1469 1469 1469 1468
1535 1535 1534 1532 1530 1528 1527 1526 1523 1520 1517 1513 1509 1506 1504 1501 1499 1498 1497 1495 1492 1489 1487 1484 1482 1479 1477 1476 1474 1472 1471 1471 1471 1471 1472 1472 1471 1471 1471 1469 1467 1466 1465
1533 1533 1532 1530 1528 1527 1526 1523 1520 1518 1513 1510 1506 1503 1500 1497 1495 1494 1493 1491 1489 1488 1485 1483 1480 1478 1476 1474 1472 1471 1469 1469 1468 1469 1469 1469 1469 1469 1470 1468 1466 1464 1462
1532 1531 1529 1527 1526 1525 1524 1520 1517 1514 1510 1506 1502 1499 1496 1493 1491 1490 1488 1487 1486 1485 1483 1481 1478 1476 1474 1472 1470 1469 1468 1466 1466 1465 1466 1466 1466 1466 1466 1465 1463 1460 1458
1530 1529 1527 1526 1524 1523 1521 1517 1514 1510 1506 1501 1498 1495 1492 1490 1488 1486 1485 1484 1482 1481 1480 1478 1476 1474 1472 1470 1469 1467 1466 1465 1464 1462 1462 1461 1461 1461 1462 1460 1459 1456 1454
1528 1527 1526 1525 1523 1521 1517 1513 1509 1505 1501 1498 1493 1491 1489 1486 1485 1483 1482 1481 1479 1478 1476 1475 1473 1471 1470 1468 1466 1465 1464 1462 1461 1460 1459 1458 1458 1457 1457 1457 1456 1455 1452
1526 1525 1525 1523 1521 1518 1514 1510 1506 1502 1497 1494 1491 1487 1485 1483 1481 1480 1479 1478 1476 1475 1473 1471 1470 1468 1467 1465 1464 1462 1461 1459 1458 1457 1456 1455 1454 1453 1453 1452 1452 1451 1450
1524 1524 1523 1520 1518 1515 1511 1507 1503 1499 1496 1492 1489 1485 1482 1479 1478 1476 1475 1474 1472 1471 1469 1468 1467 1466 1464 1462 1460 1459 1458 1456 1455 1453 1452 1451 1450 1448 1448 1447 1447 1446 1445
1520 1520 1519 1517 1516 1513 1509 1505 1501 1498 1494 1490 1487 1483 1480 1478 1475 1473 1472 1470 1469 1467 1466 1464 1463 1461 1460 1459 1457 1455 1454 1452 1450 1449 1447 1446 1445 1444 1443 1442 1441 1440 1439
1516 1515 1515 1514 1512 1510 1506 1503 1499 1496 1493 1489 1486 1483 1480 1477 1474 1472 1470 1468 1466 1464 1462 1460 1458 1456 1455 1454 1452 1450 1449 1448 1446 1445 1443 1442 1441 1439 1439 1437 1435 1434 1433
1509 1508 1509 1509 1508 1506 1503 1499 1497 1493 1490 1487 1484 1481 1478 1475 1473 1470 1468 1466 1464 1462 1460 1457 1455 1453 1451 1449 1447 1445 1444 1442 1441 1440 1438 1437 1436 1434 1433 1432 1430 1429 1427
1504 1504 1504 1504 1503 1501 1498 1495 1492 1489 1486 1484 1482 1479 1477 1474 1472 1469 1466 1463 1461 1458 1457 1455 1452 1450 1447 1445 1442 1440 1438 1437 1435 1434 1433 1432 1430 1429 1427 1426 1424 1423 1422
1500 1500 1501 1499 1498 1496 1494 1491 1488 1485 1483 1480 1478 1476 1474 1472 1469 1466 1464 1461 1458 1456 1453 1451 1448 1446 1444 1441 1438 1435 1432 1431 1430 1429 1428 1427 1425 1423 1422 1420 1419 1417 1415
1497 1497 1496 1494 1492 1491 1489 1486 1483 1480 1478 1475 1474 1472 1470 1468 1466 1463 1460 1457 1454 1452 1450 1447 1444 1441 1438 1436 1434 1431 1428 1425 1423 1422 1420 1419 1418 1417 1416 1414 1412 1411 1410
1494 1494 1491 1489 1488 1486 1484 1481 1478 1476 1474 1472 1470 1468 1466 1464 1462 1460 1457 1454 1451 1448 1445 1443 1440 1438 1435 1431 1428 1425 1423 1420 1418 1415 1413 1411 1410 1410 1409 1407 1405 1403 1403
1489 1487 1485 1482 1481 1480 1478 1476 1473 1471 1469 1467 1466 1464 1461 1459 1457 1455 1453 1451 1448 1445 1441 1438 1435 1432 1430 1427 1423 1421 1419 1416 1413 1410 1408 1405 1402 1402 1401 1398 1396 1395 1394
1484 1481 1479 1476 1475 1474 1472 1470 1468 1466 1464 1463 1461 1460 1457 1455 1452 1451 1448 1446 1443 1440 1437 1434 1431 1428 1424 1422 1420 1415 1412 1409 1407 1405 1401 1399 1397 1394 1393 1390 1388 1385 1386
1477 1475 1473 1471 1469 1468 1466 1464 1462 1460 1459 1458 1456 1454 1451 1449 1447 1444 1443 1440 1437 1434 1432 1428 1426 1423 1420 1417 1413 1410 1407 1403 1399 1396 1394 1391 1388 1386 1385 1383 1380 1377 1379
1470 1469 1465 1464 1463 1461 1459 1458 1456 1455 1454 1452 1450 1449 1447 1444 1441 1438 1436 1434 1431 1428 1425 1421 1419 1416 1414 1410 1405 1403 1400 1397 1392 1389 1387 1383 1381 1377 1375 1373 1373 1371 1369
1465 1462 1459 1458 1458 1456 1453 1451 1452 1452 1450 1447 1444 1442 1440 1437 1436 1432 1430 1426 1424 1421 1417 1415 1410 1407 1404 1403 1399 1394 1391 1388 1384 1380 1376 1373 1371 1369 1366 1364 1362 1362 1360
1460 1458 1456 1454 1453 1452 1451 1449 1448 1447 1444 1440 1438 1434 1432 1429 1426 1424 1422 1419 1416 1413 1409 1405 1402 1398 1394 1393 1391 1386 1383 1380 1376 1372 1367 1364 1361 1359 1356 1354 1353 1351 1350
1455 1454 1453 1451 1449 1448 1446 1445 1443 1440 1436 1433 1431 1428 1425 1421 1420 1416 1414 1410 1407 1404 1399 1395 1392 1388 1383 1382 1380 1377 1373 1369 1365 1362 1357 1353 1350 1347 1344 1343 1342 1342 1340
1450 1449 1447 1445 1444 1442 1439 1438 1436 1433 1429 1425 1422 1420 1416 1412 1410 1406 1401 1401 1396 1393 1390 1386 1383 1378 1373 1371 1369 1366 1363 1360 1357 1352 1348 1344 1341 1338 1336 1334 1333 1331 1330